FW7616 Weather Reports


Display with metric or nautical units.
time (UTC)temp
F
wind
direction
speed
MPH
gust
MPH
rain 1hr
in
rain 24hr
in
rain mn
in
humidity
%
barometer
mb
20260503024814 72 333 0.0 0.0 0.00 0.09 0.09 96 1014.6
20260503023831 72 333 0.0 0.0 0.00 0.09 0.09 96 1014.7
20260503022827 72 333 0.0 0.0 0.00 0.09 0.09 96 1014.4
20260503021847 72 333 0.0 0.0 0.00 0.09 0.09 96 1014.3
20260503020823 72 333 0.0 0.0 0.00 0.09 0.09 96 1014.5
20260503015817 72 333 0.0 0.0 0.00 0.09 0.09 96 1014.6
20260503014814 72 333 0.0 0.0 0.01 0.09 0.09 96 1014.4
20260503013814 72 333 0.0 0.0 0.01 0.09 0.09 95 1014.6
20260503012830 72 333 0.0 0.0 0.02 0.09 0.09 95 1014.6
20260503011846 72 333 0.0 0.0 0.08 0.09 0.09 95 1014.5
20260503010821 72 333 0.0 0.0 0.09 0.09 0.09 95 1014.4
20260503005822 72 333 0.0 0.0 0.09 0.09 0.09 94 1014.6
20260503004818 72 333 0.0 0.0 0.08 0.08 0.08 94 1014.2
20260503003815 72 333 0.0 0.0 0.08 0.08 0.08 94 1014.1
20260503002814 73 333 0.0 4.0 0.07 0.07 0.07 91 1014.3
20260503001832 78 49 2.0 9.0 0.01 0.01 0.01 82 1014.1
20260503000847 81 254 3.0 10.0 0.00 0.00 0.00 84 1013.7
20260502235822 81 270 0.0 3.0 0.00 0.00 0.00 87 1013.3
20260502234842 81 198 0.0 3.0 0.00 0.00 0.00 86 1013.3
20260502233816 82 168 0.0 1.0 0.00 0.00 0.00 84 1013.3
20260502232813 82 147 0.0 2.0 0.00 0.00 0.00 83 1013.1
20260502231829 82 186 1.0 4.0 0.00 0.00 0.00 81 1013.1
20260502230830 83 135 1.0 3.0 0.00 0.00 0.00 81 1013.0
20260502225846 83 252 0.0 7.0 0.00 0.00 0.00 80 1012.9
20260502224821 84 212 2.0 10.0 0.00 0.00 0.00 78 1012.6
20260502223819 84 203 1.0 5.0 0.00 0.00 0.00 77 1012.5
20260502222818 85 192 1.0 4.0 0.00 0.00 0.00 74 1012.3
20260502221835 85 103 1.0 7.0 0.00 0.00 0.00 72 1012.2
20260502220830 85 82 1.0 7.0 0.00 0.00 0.00 72 1012.2
20260502215825 85 201 1.0 9.0 0.00 0.00 0.00 70 1012.0
20260502214826 87 170 1.0 5.0 0.00 0.00 0.00 69 1012.0
20260502213843 87 173 2.0 9.0 0.00 0.00 0.00 67 1012.0
20260502212839 88 360 2.0 5.0 0.00 0.00 0.00 63 1011.8
20260502211818 90 226 1.0 5.0 0.00 0.00 0.00 62 1011.8
20260502210814 90 28 2.0 8.0 0.00 0.00 0.00 61 1011.7
20260502205829 90 219 1.0 5.0 0.00 0.00 0.00 61 1011.4
20260502204825 90 32 1.0 8.0 0.00 0.00 0.00 60 1011.5
20260502203826 90 224 2.0 6.0 0.00 0.00 0.00 58 1011.4
20260502202822 91 180 2.0 6.0 0.00 0.00 0.00 58 1011.7
20260502201819 92 202 1.0 5.0 0.00 0.00 0.00 60 1011.5
20260502200834 91 111 2.0 5.0 0.00 0.00 0.00 59 1011.4
20260502195813 91 138 2.0 8.0 0.00 0.00 0.00 59 1011.4
20260502194829 91 46 1.0 6.0 0.00 0.00 0.00 58 1011.7
20260502193826 91 215 3.0 8.0 0.00 0.00 0.00 56 1011.8
20260502192846 92 217 2.0 11.0 0.00 0.00 0.00 56 1011.9
20260502191821 92 269 1.0 10.0 0.00 0.00 0.00 57 1011.9
20260502190817 93 26 1.0 10.0 0.00 0.00 0.00 55 1012.0
20260502185813 93 165 2.0 9.0 0.00 0.00 0.00 56 1012.2
20260502184813 92 34 1.0 16.0 0.00 0.00 0.00 57 1012.3
20260502183831 92 228 2.0 9.0 0.00 0.00 0.00 57 1012.4
20260502182846 92 188 2.0 11.0 0.00 0.00 0.00 60 1012.4
20260502181820 92 213 2.0 8.0 0.00 0.00 0.00 60 1012.4
20260502180820 91 180 2.0 9.0 0.00 0.00 0.00 60 1012.5
20260502163815 90 206 2.0 6.0 0.00 0.00 0.00 68 1012.8
20260502162815 90 270 2.0 6.0 0.00 0.00 0.00 70 1012.8
20260502161830 89 217 1.0 8.0 0.00 0.00 0.00 72 1012.7
20260502160825 89 284 2.0 8.0 0.00 0.00 0.00 72 1012.8
20260502151814 85 120 3.0 9.0 0.00 0.00 0.00 81 1012.8
20260502150830 86 119 2.0 12.0 0.00 0.00 0.00 79 1012.8
20260502122825 71 198 0.0 0.0 0.00 0.00 0.00 95 1012.3
20260502121825 70 199 0.0 0.0 0.00 0.00 0.00 96 1012.2
20260502120819 69 199 0.0 0.0 0.00 0.00 0.00 96 1012.2
20260502115815 68 236 0.0 0.0 0.00 0.00 0.00 96 1012.2
20260502114815 68 236 0.0 0.0 0.00 0.00 0.00 96 1012.2
20260502113831 67 236 0.0 0.0 0.00 0.00 0.00 96 1012.1
20260502112827 67 236 0.0 0.0 0.00 0.00 0.00 95 1012.0
20260502111823 67 236 0.0 0.0 0.00 0.00 0.00 95 1012.1
20260502110824 67 236 0.0 0.0 0.00 0.00 0.00 95 1012.0
20260502105820 67 236 0.0 0.0 0.00 0.00 0.00 95 1012.1
20260502104816 67 236 0.0 0.0 0.00 0.00 0.00 95 1012.0
20260502103836 67 236 0.0 0.0 0.00 0.00 0.00 95 1012.1
20260502102831 67 230 0.0 0.0 0.00 0.00 0.00 95 1011.9
20260502101828 67 230 0.0 0.0 0.00 0.00 0.00 96 1012.0
20260502100823 67 230 0.0 0.0 0.00 0.00 0.00 96 1012.2
20260502090847 67 230 0.0 0.0 0.00 0.00 0.00 96 1012.4
20260502070822 66 230 0.0 0.0 0.00 0.00 0.00 95 1012.4
20260502065842 66 230 0.0 0.0 0.00 0.00 0.00 95 1012.4
20260502064818 66 230 0.0 0.0 0.00 0.00 0.00 95 1012.5
20260502063834 66 230 0.0 0.0 0.00 0.00 0.00 95 1012.6
20260502062831 66 230 0.0 0.0 0.00 0.00 0.00 95 1012.6
20260502061827 66 230 0.0 0.0 0.00 0.00 0.00 95 1012.7
20260502060824 65 230 0.0 0.0 0.00 0.00 0.00 94 1012.8
20260502055819 65 230 0.0 0.0 0.00 0.00 0.00 95 1012.9
20260502054819 65 230 0.0 0.0 0.00 0.00 0.00 94 1012.7
20260502053815 65 230 0.0 0.0 0.00 0.00 0.00 94 1012.7
20260502052831 65 230 0.0 0.0 0.00 0.00 0.00 94 1012.4
20260502051832 65 230 0.0 0.0 0.00 0.00 0.00 94 1012.6
20260502050828 65 230 0.0 0.0 0.00 0.00 0.00 94 1012.6
20260502045845 66 230 0.0 0.0 0.00 0.00 0.00 94 1012.5
20260502044821 66 230 0.0 0.0 0.00 0.00 0.00 94 1012.6
20260502043820 66 230 0.0 0.0 0.00 0.00 0.00 94 1012.5
20260502042816 66 230 0.0 0.0 0.00 0.00 0.00 94 1012.6
20260502041853 67 230 0.0 0.0 0.00 0.00 0.00 94 1012.6
20260502040829 67 230 0.0 0.0 0.00 0.00 0.00 94 1012.7
20260502035828 67 230 0.0 0.0 0.00 0.00 0.00 94 1012.8
20260502034824 68 230 0.0 0.0 0.00 0.00 0.00 95 1012.9
20260502033821 68 230 0.0 0.0 0.00 0.00 0.00 95 1013.0
20260502032821 68 230 0.0 0.0 0.00 0.00 0.00 96 1012.9
20260502031818 69 230 0.0 0.0 0.00 0.00 0.00 95 1013.0
20260502030832 69 230 0.0 0.0 0.00 0.00 0.00 95 1013.0
20260502025832 69 230 0.0 0.0 0.00 0.00 0.00 94 1013.1